Regional Weather Roundup
Issued by NWS

Home | Current Version | Previous Version | Text Only | Print | Product List | Glossary Off
Versions: 1 2 3 4 5 6 7 8 9 10 11 12 13 14 15 16 17 18 19 20 21 22 23 24 25 26 27 28 29 30 31 32 33 34 35 36 37 38 39 40 41 42 43 44 45 46 47 48 49 50

936
ASUS43 KOAX 260710
RWRNE

WEATHER ROUNDUP FOR NEBRASKA
NATIONAL WEATHER SERVICE OMAHA NE
200 AM CDT FRI MAY 26 2017

NOTES: SATELLITE DATA IS BEING USED TO AUGMENT CLOUD COVER ABOVE
       12000 FEET.
       "FAIR" INDICATES FEW OR NO CLOUDS BELOW 12,000 FEET WITH NO
       SIGNIFICANT WEATHER AND/OR OBSTRUCTIONS TO VISIBILITY.

  * THESE STATIONS DO NOT REPORT WEATHER SUCH AS RAIN...SNOW OR FOG.

NEZ001>004-019>022-054>056-260800-
NEBRASKA PANHANDLE

CITY           SKY/WX    TMP DP  RH WIND       PRES   REMARKS
SCOTTSBLUFF    CLEAR     50  38  63 W8        29.87R
ALLIANCE       MOCLDY    47  42  83 N12       29.84R
CHADRON        CLOUDY    44  41  89 W8        29.86R
GORDON         FAIR      45  39  79 N5        29.83R
KIMBALL        CLEAR     49  45  88 N10       29.89R
SIDNEY         CLOUDY    50  48  93 NW12      29.84R
$$

NEZ057>060-069>072-079>082-260800-
SOUTHWEST NEBRASKA

CITY           SKY/WX    TMP DP  RH WIND       PRES   REMARKS
NORTH PLATTE   CLOUDY    56  54  93 CALM      29.71S
IMPERIAL       CLOUDY    56  52  86 N12       29.75R
LEXINGTON      CLOUDY    61  56  84 E5        29.67F
MCCOOK         MOCLDY    58  53  84 E6        29.68F
OGALLALA       CLOUDY    59  53  80 NW5       29.77R
$$

NEZ005>010-023>029-035>040-094-260800-
NORTH CENTRAL NEBRASKA

CITY           SKY/WX    TMP DP  RH WIND       PRES   REMARKS
VALENTINE      CLOUDY    57  40  52 N16       29.78R
AINSWORTH      CLOUDY    57  44  61 N16G22    29.75S
BROKEN BOW     MOCLDY    62  53  72 N9        29.69F
O`NEILL        CLOUDY    58  52  79 W3        29.71R
ORD            CLOUDY    60  53  77 W5        29.69R
THEDFORD       CLOUDY    56  51  84 NW9       29.77R
$$

NEZ041-046>049-061>064-073>077-083>087-260800-
SOUTH CENTRAL NEBRASKA

CITY           SKY/WX    TMP DP  RH WIND       PRES   REMARKS
GRAND ISLAND   CLOUDY    62  59  90 NW7       29.67R
AURORA         LGT RAIN  63  57  82 CALM      29.64S
HASTINGS       LGT RAIN  64  59  83 NW9       29.66R
HEBRON         CLOUDY    65  61  88 CALM      29.61R
HOLDREGE       MOCLDY    61  55  82 NW5       29.67F
KEARNEY *      CLOUDY    63  54  72 NW9       29.68R
YORK           CLOUDY    64  57  77 CALM      29.64R
$$

NEZ011>018-030>034-042>045-260800-
NORTHEAST NEBRASKA

CITY           SKY/WX    TMP DP  RH WIND       PRES   REMARKS
NORFOLK        CLOUDY    56  52  86 SW3       29.65F
ALBION         CLOUDY    55  52  87 NW3       29.67S
BLAIR          CLOUDY    66  56  70 S8        29.65S
FREMONT        CLOUDY    66  55  66 SE7       29.65S
TEKAMAH        CLOUDY    63  56  78 SE8       29.65S
WAYNE          MOCLDY    59  57  93 CALM      29.65F
$$

NEZ050>053-065>068-078-088>093-260800-
SOUTHEAST NEBRASKA

CITY           SKY/WX    TMP DP  RH WIND       PRES   REMARKS
LINCOLN        CLOUDY    66  57  72 SE6       29.63F
OMAHA EPPLEY   CLOUDY    66  55  67 SE7       29.65F
BEATRICE       LGT RAIN  65  60  86 E8        29.58F
FALLS CITY     CLOUDY    64  57  78 E3        29.64F
NEBRASKA CITY  CLOUDY    65  52  62 SE6       29.65F
PLATTSMOUTH    CLOUDY    68  56  65 SE12      29.65F
$$

NEZ044-045-051>053-067-260800-
OMAHA AREA

CITY           SKY/WX    TMP DP  RH WIND       PRES   REMARKS
OMAHA EPPLEY   CLOUDY    66  55  67 SE7       29.65F
BLAIR          CLOUDY    66  56  70 S8        29.65S
FREMONT        CLOUDY    66  55  66 SE7       29.65S
MILLARD        CLOUDY    67  58  72 SE5       29.65S
OFFUTT AFB     CLOUDY    65  56  70 SE6       29.64F
PLATTSMOUTH    CLOUDY    68  56  65 SE12      29.65F
WAHOO          PTSUNNY   63  56  78 SE8       29.64F
$$




USA.gov is the U.S. government's official web portal to all federal, state and local government web resources and services.